Location: Arrakis Observatory
(44.1122°N, 95.7153°W)
Time: 13:10:47
(UTC-06:00)

Daily predictions for brighter satellites

Satellite Brightness Start Highest point End
(mag) Time Altitude Azimuth Time Altitude Azimuth Time Altitude Azimuth
Cosmos 44 Rocket 3.3 18:23:48 10° NNW 18:28:31 55° NE 18:33:07 10° SE
USA 215 4.4 18:23:16 10° NE 18:29:02 35° NNW 18:34:47 10° WNW
DELTA 2 R/B (1) 4.2 18:23:49 10° WSW 18:29:13 49° S 18:34:37 10° E
Okean 3 3.5 18:25:56 10° N 18:30:15 87° E 18:34:33 10° S
NOSS 2-2 (D) 3.9 18:29:22 10° S 18:33:10 42° ESE 18:37:30 10° NE
Cosmos 1697 Rocket 4.0 18:36:22 10° NW 18:41:44 45° WSW 18:47:03 10° S
Meteor 1-18 Rocket 4.4 18:37:17 10° N 18:42:41 51° ENE 18:48:05 10° SSE
Cosmos 2360 Rocket 3.5 18:38:50 10° N 18:43:04 21° NE 18:46:58 11° E
Cosmos 1980 Rocket 2.6 18:38:43 10° NNW 18:44:24 71° WSW 18:50:02 10° SSE
Cosmos 1461 3.9 18:42:02 10° NNW 18:45:27 26° NE 18:48:30 12° E
Tiangong 2 1.1 18:45:42 10° W 18:48:46 69° S 18:51:10 15° E
SJ-6B 3.0 18:45:29 10° SSE 18:49:25 52° ENE 18:53:18 10° N
SKYMED 2 3.9 18:45:23 10° N 18:49:43 70° WNW 18:54:01 10° SSW
NOSS 2-2 (C) 3.5 18:46:17 10° SSW 18:50:15 62° ESE 18:54:52 10° NE
Cosmos 1992 Rocket 3.9 18:45:12 10° NNW 18:50:28 78° ENE 18:55:42 10° SSE
Cosmos 1975 Rocket 3.0 18:46:34 10° N 18:50:55 89° E 18:55:13 10° S
Cosmos 407 Rocket 4.2 18:48:38 10° SSE 18:53:14 32° E 18:57:53 10° NE
Helios 1A 4.4 18:52:22 14° E 18:54:13 18° ENE 18:57:03 10° NNE
SL-08 R/B 4.5 18:48:27 10° S 18:54:33 86° E 19:00:46 10° N
Meteor 1-14 Rocket 4.3 18:49:18 10° S 18:55:15 80° E 19:01:16 10° NNE
METEOR-M 4.1 18:52:17 10° SSE 18:57:38 85° ENE 19:03:00 10° NNW
FengYun 1-2 T 4.4 18:55:41 10° SE 19:00:58 51° ENE 19:06:16 10° N
ERBS 3.2 18:57:39 10° WNW 19:01:02 51° SW 19:04:23 10° SSE
Cosmos 44 2.9 18:57:14 10° NNW 19:01:43 70° NE 19:06:00 10° SE
Nadezhda 1 Rocket 3.9 18:57:31 10° N 19:03:40 81° E 19:09:43 10° S
NOAA 12 4.2 18:59:58 10° SSE 19:05:17 81° WSW 19:10:39 10° NNW
GEOS 3 Rocket 3.6 19:01:33 10° NE 19:06:48 72° SE 19:12:03 10° SSW
Resurs 01 Rocket 1.9 19:03:05 10° SE 19:07:15 43° ENE 19:11:26 10° N
Cosmos 2181 Rocket 4.4 19:03:04 10° N 19:08:53 40° ENE 19:14:46 10° SE
Cosmos 1536 Rocket 3.9 19:05:20 10° N 19:09:37 45° ENE 19:13:54 10° SSE
Cosmos 2082 Rocket 4.1 19:05:57 10° WSW 19:10:50 29° NW 19:15:45 10° N
SL-16 R/B 2.1 19:07:36 10° NNW 19:13:18 74° ENE 19:18:58 10° SSE
Cosmos 1190 Rocket 4.0 19:10:36 10° S 19:15:41 59° ESE 19:20:48 10° NNE
Meteor 1-20 Rocket 4.2 19:10:53 10° S 19:16:40 75° E 19:22:32 10° NNE
Okean 1 3.3 19:12:42 10° N 19:16:45 62° E 19:20:45 10° SSE
DNEPR-1 R/B 3.4 19:13:25 10° NNW 19:17:43 67° NE 19:20:47 18° SE
FREGAT/IRIS 3.5 19:19:11 10° S 19:22:12 52° W 19:25:14 10° NNW
Helios 1B rocket 4.3 19:27:49 15° SE 19:27:49 15° SE 19:28:47 10° SSE
Cosmos 1140 Rocket 4.4 19:22:36 10° SSE 19:26:22 26° ESE 19:26:22 26° ESE
Spot 2 Rocket 3.4 19:23:07 10° SSE 19:28:08 70° ENE 19:33:12 10° N
Cosmos 1633 3.4 19:26:00 10° SSE 19:28:24 31° SE 19:28:24 31° SE
USA 186 4.3 19:34:35 11° NNE 19:34:35 11° NNE 19:34:47 10° N
Cosmos 1340 2.7 19:28:23 10° N 19:32:07 51° ENE 19:33:19 35° SE
Cosmos 2322 Rocket 2.3 19:27:49 10° NNW 19:33:26 77° WSW 19:39:02 10° SSE
CZ-2D R/B 3.3 19:32:26 34° SE 19:33:44 51° ENE 19:37:27 10° N
Resurs 1-3 3.5 19:32:51 10° SSE 19:37:13 75° ENE 19:41:37 10° N
Cosmos 1709 Rocket 3.9 19:31:26 10° S 19:37:39 73° E 19:43:50 10° NNE
Cosmos 1238 Rocket 3.5 19:35:52 10° N 19:37:40 28° NNE 19:37:40 28° NNE
HJ-1C 4.0 19:36:04 10° S 19:39:25 58° W 19:42:45 10° NNW
Cosmos 2322 4.0 19:35:16 10° NNW 19:40:47 46° ENE 19:42:35 35° ESE
ALOS 2.7 19:38:49 10° S 19:43:26 64° WSW 19:48:06 10° NNW
Envisat 3.7 19:44:45 32° ENE 19:44:45 32° ENE 19:48:49 10° N
Cosmos 1954 Rocket 4.1 19:40:00 10° S 19:44:59 51° ESE 19:47:49 25° NE
Cosmos 1300 Rocket 3.5 19:42:30 10° S 19:46:49 59° E 19:51:12 10° NNE
Meteor 1-11 Rocket 3.8 19:42:19 10° S 19:47:54 57° E 19:53:39 10° NNE
Meteor 2-4 Rocket 3.8 19:42:56 10° N 19:48:25 48° ENE 19:49:51 39° ESE
H-2A R/B 2.7 19:45:43 13° S 19:48:58 77° WSW 19:52:43 10° NNW
COSMOS 2428 3.5 19:45:11 10° N 19:50:11 31° NE 19:50:11 31° NE
Spot 1 3.7 19:52:14 52° SSE 19:53:10 77° ENE 19:57:16 10° N
CENTAUR R/B 4.4 19:47:38 10° NW 19:54:48 38° WSW 20:02:18 10° S
Cosmos 2151 Rocket 4.4 19:52:21 10° SSW 19:56:44 53° WNW 20:01:11 10° N
ATLAS CENTAUR R/B 4.3 19:59:44 10° NW 20:01:02 11° NNW 20:02:18 10° NNW
Cosmos 1818 3.4 19:58:05 10° SSW 20:03:31 77° ESE 20:05:18 44° NE
ERS-1 Rocket 4.5 20:05:49 23° NNE 20:05:49 23° NNE 20:08:05 10° N
BREEZE-M DEB (TANK) 2.3 20:01:41 10° WNW 20:04:18 83° SSW 20:04:21 83° S
Cosmos 2237 Rocket 4.0 20:04:01 10° N 20:06:20 16° NNE 20:06:20 16° NNE
DELTA 2 R/B (1) 3.9 20:09:52 10° W 20:15:18 51° S 20:15:51 49° SSE
Okean 1-7 Rocket 4.1 20:13:12 10° N 20:16:37 50° N 20:16:37 50° N
Cosmos 1461 4.2 20:21:00 10° NW 20:24:38 34° WSW 20:25:02 33° SW
Tiangong 2 3.9 20:22:13 10° W 20:23:09 17° WSW 20:23:09 17° WSW
Cosmos 2360 Rocket 2.3 20:22:01 10° NNW 20:27:40 72° WSW 20:28:48 56° S
Cosmos 1570 Rocket 4.3 20:23:57 10° NNW 20:28:07 55° N 20:28:07 55° N
Helios 1A 4.0 20:29:01 42° WSW 20:29:28 44° W 20:33:29 10° NNW
Cosmos 2219 Rocket 3.5 20:27:36 10° N 20:30:39 27° NNE 20:30:39 27° NNE
SL-16 R/B 4.5 20:34:13 10° N 20:34:49 11° NNE 20:34:49 11° NNE
Cosmos 1833 4.5 20:37:15 10° SW 20:42:55 65° WNW 20:43:58 54° NNW
Resurs 01 Rocket 4.2 20:40:47 10° SW 20:43:56 19° W 20:47:05 10° NW
Cosmos 2333 Rocket 3.7 20:41:01 10° NNW 20:43:49 26° N 20:43:49 26° N
BREEZE-M DEB (TANK) 4.2 20:52:35 10° WNW 20:55:41 64° W 20:55:41 64° W
COSMOS 2428 4.4 21:29:15 10° NW 21:32:15 29° NW 21:32:15 29° NW
